Regional Weather Roundup
Issued by NWS

Home | Current Version | Previous Version | Text Only | Print | Product List | Glossary Off
Versions: 1 2 3 4 5 6 7 8 9 10 11 12 13 14 15 16 17 18 19 20 21 22 23 24 25 26 27 28 29 30 31 32 33 34 35 36 37 38 39 40 41 42 43 44 45 46 47 48 49 50

000
ASUS43 KMKX 210600
RWRWI

WISCONSIN REGIONAL WEATHER ROUNDUP
NATIONAL WEATHER SERVICE MILWAUKEE/SULLIVAN WI
100 AM CDT THU SEP 21 2017

NOTE: "FAIR" INDICATES FEW OR NO CLOUDS BELOW 12,000 FEET WITH NO
SIGNIFICANT WEATHER AND/OR OBSTRUCTIONS TO VISIBILITY.

WIZ001-002-006>008-014>016-023>028-210700-
NORTHWEST WISCONSIN

CITY           SKY/WX    TMP DP  RH WIND       PRES   REMARKS
SUPERIOR ARPT  PTCLDY    45  45 100 CALM      29.98R
ASHLAND        CLEAR     46  44  93 CALM      30.00R FOG
6HR MIN TEMP:  43; 6HR MAX TEMP:  66;

HAYWARD        FOG       46  44  93 CALM      30.01R VSB 3/4
6HR MIN TEMP:  46; 6HR MAX TEMP:  67;

SIREN          CLEAR     47  45  93 CALM      30.00R
CUMBERLAND     CLEAR     48  46  93 CALM      29.99S
RICE LAKE      CLEAR     49  48  98 CALM      30.00S
CHETEK         CLEAR     51  51 100 CALM      30.00R
LADYSMITH      CLEAR     55  53  95 CALM      30.01R
EAU CLAIRE     NOT AVBL
MENOMONIE      CLEAR     55  54  95 W3        29.98S
NEW RICHMOND   NOT AVBL
OSCEOLA        FOG       48  48 100 CALM      30.02R VSB 1
$$

WIZ003>005-009-010-017-018-210700-
NORTH CENTRAL WISCONSIN

CITY           SKY/WX    TMP DP  RH WIND       PRES   REMARKS
MANITOWISH WTR FOG       51  51 100 CALM      30.01R VSB 1/4
ARBOR VITAE    FOG       55  54  95 N5        30.00R VSB 1/2
WOODRUFF       FOG       55  54  95 N5        30.00R VSB 1/2
RHINELANDER    CLEAR     62  62 100 N3        29.99R
6HR MIN TEMP:  55; 6HR MAX TEMP:  69;

EAGLE RIVER    PTCLDY    60  60 100 N6        29.99R
LAND O LAKES   CLEAR     58  58 100 N5        30.01R
PHILLIPS         N/A     51  51 100 CALM      29.99R FOG
TOMAHAWK       FOG       56  55  97 CALM      29.98S VSB 1/4
MEDFORD        FOG       54  54  99 CALM      29.98R VSB 1/4
MERRILL        FOG       61  61 100 CALM      29.97R VSB 1
$$

WIZ029-030-035-036-043>047-210700-
CENTRAL WISCONSIN

CITY           SKY/WX    TMP DP  RH WIND       PRES   REMARKS
WAUSAU         CLOUDY    63  63 100 NW9       29.94R FOG
6HR MIN TEMP:  63; 6HR MAX TEMP:  73;

MOSINEE        FOG       61  61 100 CALM      29.96R VSB 1/4
MARSHFIELD     CLEAR     59  57  93 NW7       29.95S
6HR MIN TEMP:  59; 6HR MAX TEMP:  70;

STEVENS POINT  FOG       64  64 100 S3        29.95R VSB 1/2
WAUPACA        FOG       68  67  98 CALM      29.93F VSB 3/4
WAUTOMA        CLOUDY    67  67 100 W3        29.93F
6HR MIN TEMP:  67; 6HR MAX TEMP:  74; 6HR PCP:  1.10;

WISC RAPIDS    FOG       62  62 100 CALM      29.96R VSB 1/4
6HR MIN TEMP:  61; 6HR MAX TEMP:  71;

CAMP DOUGLAS   CLOUDY    63  63 100 W6        29.94S FOG
$$

WIZ011>013-019>022-031-037>040-048>050-210700-
NORTHEAST WISCONSIN

CITY           SKY/WX    TMP DP  RH WIND       PRES   REMARKS
ANTIGO         FOG       65  65 100 CALM      29.95F VSB<1/4
SHAWANO        CLOUDY    69  66  90 CALM      29.92S
OCONTO         CLOUDY    68  67  96 N5        29.92S
STURGEON BAY   CLOUDY    69  68  96 W3        29.94R FOG
6HR MIN TEMP:  69; 6HR MAX TEMP:  73; 6HR PCP: TRACE;

GREEN BAY      CLOUDY    68  68 100 CALM      29.91F
6HR MIN TEMP:  68; 6HR MAX TEMP:  75; 6HR PCP:  0.45;

MANITOWOC      CLOUDY    71  66  84 S16       29.92F
6HR MIN TEMP:  69; 6HR MAX TEMP:  73; 6HR PCP:  0.19;

APPLETON       CLOUDY    68  68 100 SW6       29.89F
CLINTONVILLE   NOT AVBL
OSHKOSH        CLOUDY    69  67  93 S12       29.90F
6HR MIN TEMP:  68; 6HR MAX TEMP:  74; 6HR PCP:  1.81;

$$

WIZ032>034-041-042-053>061-210700-
SOUTHWEST WISCONSIN

CITY           SKY/WX    TMP DP  RH WIND       PRES   REMARKS
LA CROSSE      NOT AVBL
SPARTA         FOG       59  59 100 CALM      29.96R VSB<1/4
VIROQUA        MOCLDY    65  65 100 CALM      29.96R
BOSCOBEL       CLOUDY    72  70  93 N3        29.95R
6HR MIN TEMP:  71; 6HR MAX TEMP:  82; 6HR PCP:  0.02;

PRAIRIE DU CHI CLOUDY    69  67  92 CALM      29.95R
PLATTEVILLE    CLOUDY    72  72  99 CALM      29.95S
$$

WIZ056-057-062-063-064-067-068-210700-
SOUTH CENTRAL WISCONSIN

CITY           SKY/WX    TMP DP  RH WIND       PRES   REMARKS
REEDSBURG      CLOUDY    69  69 100 CALM      29.95R FOG
BARABOO/DELLS  CLOUDY    69  67  95 CALM      29.94R FOG
LONE ROCK      NOT AVBL
MINERAL POINT  CLOUDY    72  72 100 CALM      29.95R
MADISON        CLOUDY    72  70  93 SE5       29.94R
6HR MIN TEMP:  71; 6HR MAX TEMP:  86; 6HR PCP:  0.39;

MIDDLETON      CLOUDY    71  71 100 CALM      29.95R
WATERTOWN      CLOUDY    69  69 100 E3        29.94S
MONROE         CLOUDY    73  63  68 CALM      29.96R
JANESVILLE     CLOUDY    77  68  73 N3        29.94R
$$

WIZ051-052-058>065-066-070>072-210700-
SOUTHEAST WISCONSIN

CITY           SKY/WX    TMP DP  RH WIND       PRES   REMARKS
MILWAUKEE      CLOUDY    71  67  87 E6        29.95S
6HR MIN TEMP:  71; 6HR MAX TEMP:  81;

WAUKESHA       CLOUDY    68  64  88 CALM      29.96F
MILWAUKEE/TIMM CLOUDY    70  63  78 CALM      29.95F
RACINE         CLOUDY    71  67  87 NE6       29.98R
6HR MIN TEMP:  71; 6HR MAX TEMP:  77;

BURLINGTON     MOCLDY    72  68  86 NE3       29.94F
KENOSHA        CLOUDY    75  67  76 NE6       29.96R
6HR MIN TEMP:  73; 6HR MAX TEMP:  83;

FOND DU LAC    CLOUDY    70  66  87 S8        29.92F
6HR MIN TEMP:  68; 6HR MAX TEMP:  76; 6HR PCP:  3.44;

SHEBOYGAN      TSTM      71  68  90 SE12      29.94F
6HR MIN TEMP:  67; 6HR MAX TEMP:  74; 6HR PCP:  0.91;

WEST BEND        N/A     68  68 100 N5        29.96F
JUNEAU         CLOUDY    68  67  98 E5        29.95S
$$

LSZ147-162-210700-
LAKE SUPERIOR

STATION/POSITION TIME  TEMP    WIND        PRES    WAVE
                       AIR SEA DIR/SP/G            HT/PER
                 (UTC) (F)     (DEG/KT/KT) (MB)    (FT/S)
W MID LAKE BUOY  0450   57 54  320/  6/  8 1014.0R   2/ 4
DEVILS ISLAND    0500   61     340/  6/  7 1014.6R
PORT WING        0530          130/  3/  4 1015.2R
SAXON HARBOR     0540   54     180/  3/  4 1014.9R
$$

LMZ867-665-643>646-210700-
LAKE MICHIGAN

STATION/POSITION TIME  TEMP    WIND        PRES    WAVE
                       AIR SEA DIR/SP/G            HT/PER
                 (UTC) (F)     (DEG/KT/KT) (MB)    (FT/S)
S GREEN BAY BUOY 0530   68 66  150/  6/  6 1013.5R
N MID LAKE BUOY  0450   70 65  150/  4/  6 1013.3R   2/ 5
NORTHPORT PIER   0540   68        CALM     1012.9R
KEWAUNEE LAKESHO 0530   70     330/  3/  5 1012.3R
SHEBOYGAN LAKESH 0500   70     310/  7/  9 1015.1S
PORT WASHINGTON  0530   68      40/  3/  8 1014.6S
ATWATER BUOY     0409   71 64   30/ 12/ 14 1014.5R
MILWAUKEE LAKESH 0550   68      CALM  /  1   N/A
S MID LAKE BUOY  0450   72 69  160/ 10/ 12 1013.7R   1/ 3
KENOSHA   LAKESH 0500   73     190/  7/  9 1013.2
$$

TC  - TEMPERATURE IN CELSIUS
VSB - VISIBILITY IN STATUTE MILES
WCI - WIND CHILL INDEX
HX  - HEAT INDEX





USA.gov is the U.S. government's official web portal to all federal, state and local government web resources and services.